R/V Atlantis Calliope CSV data file  (Time stamps are GMT)
Date, Time_GMT, Dec_Lat, Dec_Lon, Depth12, Depth35, GPS_COG, GPS_SOG, Gyro, Air_Temp, IMET_BPR, IMET_SWR, HRH, PhinsHd, SBE45C, SBE45S, SBE45T, Salinity, SSTMP, SSV, SSCND, SST_FSI, SST_SBE48, Wnd_Dir, Wnd_Spd, HdChkSum=1B
2009/03/14, 00:00:03, 1.094267, -101.293300, , , 273.0, 10.30, 275.9, 25.459, 1006.57, 133.0, 84.594, 275.4, , , , 34.4540, 26.3152, 1536.9190, 53.6874, 26.1668, 26.3152, 31.0, 3.2787, 1B
2009/03/14, 00:01:01, 1.094450, -101.296150, , , 274.0, 10.60, 275.8, 25.474, 1006.25, 150.0, 84.387, 276.0, , , , 34.4208, 26.3182, 1536.8935, 53.6459, 26.1286, 26.3182, 31.6, 3.3131, 1B
2009/03/14, 00:02:01, 1.094617, -101.299033, , , 272.0, 10.40, 276.0, 25.474, 1006.44, 152.5, 84.341, 275.6, , , , 34.4413, 26.3166, 1536.9087, 53.6712, 26.1529, 26.3166, 32.9, 3.2626, 1B
2009/03/14, 00:03:01, 1.094800, -101.301900, , , 277.0, 10.10, 275.7, 25.482, 1006.50, 130.8, 84.502, 275.5, , , , 34.4215, 26.3140, 1536.8808, 53.6408, 26.1185, 26.3140, 36.8, 3.5717, 1B
2009/03/14, 00:04:01, 1.094967, -101.304783, , , 274.0, 10.40, 276.3, 25.474, 1006.37, 131.6, 84.364, 275.8, , , , 34.3930, 26.3076, 1536.8395, 53.5965, 26.0834, 26.3076, 34.3, 3.4106, 1B
2009/03/14, 00:05:01, 1.095150, -101.307650, , , 274.0, 10.30, 276.2, 25.467, 1006.29, 166.7, 84.533, 275.4, , , , 34.3987, 26.3056, 1536.8353, 53.5998, 26.0782, 26.3056, 39.5, 3.7884, 1B
2009/03/14, 00:06:02, 1.095317, -101.310517, , , 271.0, 10.10, 275.4, 25.474, 1006.65, 98.4, 84.609, 276.2, , , , 34.3855, 26.3038, 1536.8194, 53.5807, 26.0730, 26.3038, 30.2, 3.6235, 1B
2009/03/14, 00:07:01, 1.095500, -101.313400, , , 275.0, 10.50, 276.0, 25.474, 1006.53, 97.1, 84.609, 275.5, , , , 34.4086, 26.2991, 1536.8357, 53.6089, 26.0937, 26.2991, 28.3, 3.8581, 1B
2009/03/14, 00:08:01, 1.095667, -101.316267, , , 270.0, 10.20, 276.2, 25.467, 1006.56, 161.7, 84.648, 276.0, , , , 34.3958, 26.2978, 1536.8169, 53.5889, 26.0826, 26.2978, 33.4, 3.9348, 1B
2009/03/14, 00:09:01, 1.095833, -101.319133, , , 282.0, 10.20, 275.5, 25.459, 1006.66, 170.1, 84.433, 275.2, , , , 34.3865, 26.2954, 1536.8012, 53.5734, 26.0640, 26.2954, 32.1, 3.9956, 1B
2009/03/14, 00:10:01, 1.095983, -101.322000, , , 270.0, 10.10, 275.4, 25.459, 1006.87, 155.7, 84.173, 275.6, , , , 34.3735, 26.2936, 1536.7819, 53.5531, 26.0377, 26.2936, 38.6, 3.7257, 1B
2009/03/14, 00:11:01, 1.096150, -101.324867, , , 276.0, 10.20, 276.1, 25.467, 1006.57, 113.2, 84.441, 275.6, , , , 34.4002, 26.2930, 1536.8104, 53.5901, 26.0760, 26.2930, 37.1, 3.3341, 1B
2009/03/14, 00:12:01, 1.096350, -101.327733, , , 271.0, 10.50, 276.3, 25.467, 1006.70, 150.2, 84.709, 275.2, , , , 34.3970, 26.2910, 1536.8019, 53.5833, 26.0690, 26.2910, 39.2, 3.7718, 1B
2009/03/14, 00:13:01, 1.096517, -101.330583, , , 274.0, 10.40, 275.7, 25.474, 1006.61, 157.0, 84.709, 275.4, , , , 34.3832, 26.2876, 1536.7811, 53.5615, 26.0394, 26.2876, 38.4, 3.5153, 1B
2009/03/14, 00:14:01, 1.096683, -101.333417, , , 275.0, 10.10, 276.1, 25.467, 1006.69, 119.4, 84.678, 274.8, , , , 34.3275, 26.2829, 1536.7126, 53.4803, 25.9874, 26.2829, 34.7, 3.4518, 1B
2009/03/14, 00:15:01, 1.096867, -101.336250, , , 277.0, 10.50, 276.6, 25.459, 1006.84, 74.1, 84.487, 276.5, , , , 34.3598, 26.2771, 1536.7299, 53.5174, 26.0047, 26.2771, 39.9, 3.2830, 1B
2009/03/14, 00:16:02, 1.097067, -101.339067, , , 278.0, 10.10, 275.5, 25.451, 1006.80, 110.9, 84.533, 276.0, , , , 34.3715, 26.2706, 1536.7272, 53.5269, 26.0090, 26.2706, 40.5, 3.1444, 1B
2009/03/14, 00:17:02, 1.097267, -101.341900, , , 277.0, 10.20, 276.3, 25.443, 1006.54, 89.2, 84.755, 275.6, , , , 34.3893, 26.2645, 1536.7320, 53.5452, 26.0339, 26.2645, 43.4, 2.9811, 1B
2009/03/14, 00:18:02, 1.097483, -101.344733, , , 275.0, 10.40, 275.7, 25.428, 1006.51, 100.6, 84.357, 275.4, , , , 34.4138, 26.2566, 1536.7398, 53.5710, 26.0518, 26.2566, 33.5, 3.2811, 1B
2009/03/14, 00:19:01, 1.097683, -101.347583, , , 277.0, 10.20, 276.3, 25.420, 1006.75, 121.2, 83.966, 275.8, , , , 34.3747, 26.2496, 1536.6853, 53.5112, 26.0009, 26.2496, 29.6, 3.4370, 1B
2009/03/14, 00:20:01, 1.097883, -101.350417, , , 272.0, 10.30, 275.8, 25.413, 1006.74, 82.1, 84.127, 276.2, , , , 34.3862, 26.2415, 1536.6752, 53.5171, 26.0172, 26.2415, 32.1, 3.6735, 1B
2009/03/14, 00:21:02, 1.098117, -101.353267, , , 275.0, 10.40, 275.6, 25.420, 1006.93, 53.8, 84.050, 275.3, , , , 34.3879, 26.2414, 1536.6768, 53.5194, 26.0122, 26.2414, 35.7, 3.4272, 1B
2009/03/14, 00:22:02, 1.098333, -101.356117, , , 279.0, 10.50, 275.9, 25.420, 1006.55, 51.9, 84.104, 276.0, , , , 34.4092, 26.2435, 1536.7044, 53.5511, 26.0331, 26.2435, 38.6, 2.9307, 1B
2009/03/14, 00:23:02, 1.098533, -101.358967, , , 269.0, 10.40, 275.8, 25.428, 1006.61, 48.1, 84.196, 274.5, , , , 34.4030, 26.2367, 1536.6819, 53.5354, 26.0219, 26.2367, 34.6, 3.6794, 1B
2009/03/14, 00:24:02, 1.098733, -101.361833, , , 272.0, 10.40, 276.3, 25.428, 1006.97, 75.4, 84.142, 275.7, , , , 34.4046, 26.2287, 1536.6650, 53.5294, 26.0223, 26.2287, 32.8, 3.8684, 1B
2009/03/14, 00:25:02, 1.098950, -101.364700, , , 270.0, 10.50, 275.8, 25.413, 1006.81, 46.0, 84.326, 275.2, , , , 34.4449, 26.2225, 1536.6936, 53.5787, 26.0596, 26.2225, 36.8, 4.0998, 1B
2009/03/14, 00:26:02, 1.099167, -101.367567, , , 274.0, 10.40, 275.6, 25.420, 1006.74, 58.5, 84.510, 275.4, , , , 34.4346, 26.2229, 1536.6835, 53.5649, 26.0477, 26.2229, 42.9, 3.4978, 1B
2009/03/14, 00:27:01, 1.099367, -101.370433, , , 276.0, 10.50, 276.3, 25.420, 1006.88, 82.9, 84.510, 275.4, , , , 34.4157, 26.2241, 1536.6657, 53.5398, 26.0310, 26.2241, 42.3, 3.0089, 1B
2009/03/14, 00:28:02, 1.099583, -101.373317, , , 283.0, 10.30, 276.2, 25.420, 1007.04, 53.7, 84.541, 275.5, , , , 34.4217, 26.2249, 1536.6744, 53.5491, 26.0391, 26.2249, 48.7, 2.8139, 1B
2009/03/14, 00:29:02, 1.099767, -101.376167, , , 273.0, 10.20, 276.1, 25.420, 1006.90, 43.9, 84.671, 275.9, , , , 34.4301, 26.2220, 1536.6766, 53.5577, 26.0388, 26.2220, 29.4, 3.7427, 1B
2009/03/14, 00:30:02, 1.099967, -101.379017, , , 274.0, 10.20, 275.0, 25.413, 1006.81, 47.4, 84.410, 274.1, , , , 34.4364, 26.2166, 1536.6708, 53.5608, 26.0425, 26.2166, 31.7, 3.3926, 1B
2009/03/14, 00:31:01, 1.100150, -101.381900, , , 275.0, 10.10, 275.1, 25.405, 1006.95, 36.2, 84.709, 275.4, , , , 34.4558, 26.2185, 1536.6943, 53.5994, 26.0829, 26.2185, 37.8, 3.0743, 1B
2009/03/14, 00:32:02, 1.100350, -101.384800, , , 269.0, 10.80, 275.9, 25.390, 1006.94, 43.8, 84.472, 275.8, , , , 34.4633, 26.2189, 1536.7049, 53.6004, 26.0870, 26.2189, 34.7, 3.9083, 1B
2009/03/14, 00:33:01, 1.100567, -101.387683, , , 274.0, 10.50, 276.2, 25.390, 1006.85, 43.1, 84.211, 275.5, , , , 34.4483, 26.2171, 1536.6854, 53.5781, 26.0631, 26.2171, 41.6, 3.2958, 1B
2009/03/14, 00:34:02, 1.100750, -101.390567, , , 273.0, 10.20, 275.9, 25.382, 1007.18, 45.5, 83.936, 275.6, , , , 34.4299, 26.2151, 1536.6603, 53.5503, 26.0320, 26.2151, 37.9, 3.6375, 1B
2009/03/14, 00:35:01, 1.100950, -101.393433, , , 271.0, 10.20, 275.5, 25.390, 1006.78, 31.0, 84.043, 275.0, , , , 34.4522, 26.2150, 1536.6839, 53.5810, 26.0658, 26.2150, 32.8, 3.6893, 1B
2009/03/14, 00:36:01, 1.101150, -101.396300, , , 277.0, 10.30, 275.9, 25.382, 1006.85, 28.9, 84.066, 274.9, , , , 34.4508, 26.2155, 1536.6808, 53.5784, 26.0530, 26.2155, 33.9, 3.3885, 1B
2009/03/14, 00:37:02, 1.101317, -101.399167, , , 274.0, 10.40, 276.9, 25.397, 1007.07, 28.3, 84.441, 274.9, , , , 34.4422, 26.2176, 1536.6793, 53.5699, 26.0540, 26.2176, 37.8, 3.7044, 1B
2009/03/14, 00:38:02, 1.101533, -101.402033, , , 271.0, 10.50, 275.3, 25.397, 1007.04, 32.7, 84.449, 275.7, , , , 34.4516, 26.2203, 1536.6956, 53.5857, 26.0780, 26.2203, 38.4, 3.4532, 1B
2009/03/14, 00:39:02, 1.101717, -101.404917, , , 275.0, 10.40, 276.1, 25.405, 1007.05, 34.7, 84.456, 275.8, , , , 34.4573, 26.2225, 1536.7068, 53.5959, 26.0770, 26.2225, 37.7, 3.5628, 1B
2009/03/14, 00:40:02, 1.101900, -101.407783, , , 277.0, 10.30, 275.9, 25.397, 1006.73, 31.8, 84.441, 275.8, , , , 34.4728, 26.2252, 1536.7297, 53.6201, 26.0836, 26.2252, 38.0, 3.1743, 1B
2009/03/14, 00:41:02, 1.102067, -101.410633, , , 277.0, 10.40, 275.2, 25.405, 1006.95, 25.6, 84.724, 276.3, , , , 34.4516, 26.2281, 1536.7138, 53.5937, 26.0762, 26.2281, 36.9, 2.9424, 1B
2009/03/14, 00:42:01, 1.102267, -101.413483, , , 276.0, 10.30, 275.7, 25.382, 1007.25, 21.8, 84.495, 275.5, , , , 34.4623, 26.2341, 1536.7359, 53.6133, 26.0921, 26.2341, 30.1, 3.4464, 1B
2009/03/14, 00:43:02, 1.102433, -101.416333, , , 270.0, 10.30, 276.3, 25.366, 1006.98, 18.5, 84.380, 276.2, , , , 34.4614, 26.2392, 1536.7501, 53.6188, 26.0991, 26.2392, 28.2, 3.6682, 1B
2009/03/14, 00:44:02, 1.102617, -101.419183, , , 273.0, 10.40, 276.3, 25.351, 1007.01, 16.1, 84.211, 275.6, , , , 34.4590, 26.2432, 1536.7569, 53.6197, 26.0958, 26.2432, 33.1, 3.5913, 1B
2009/03/14, 00:45:01, 1.102817, -101.422050, , , 273.0, 10.60, 274.9, 25.351, 1007.02, 14.8, 84.211, 274.9, , , , 34.4572, 26.2436, 1536.7542, 53.6168, 26.1077, 26.2436, 39.0, 3.4802, 1B
2009/03/14, 00:46:01, 1.102950, -101.424917, , , 279.0, 10.50, 275.2, 25.343, 1006.83, 13.6, 83.989, 274.9, , , , 34.4939, 26.2467, 1536.8000, 53.6705, 26.1425, 26.2467, 39.8, 3.2883, 1B
2009/03/14, 00:47:01, 1.103117, -101.427800, , , 268.0, 10.40, 276.2, 25.343, 1007.17, 12.2, 84.050, 275.9, , , , 34.4695, 26.2506, 1536.7844, 53.6414, 26.1264, 26.2506, 43.4, 3.2814, 1B
2009/03/14, 00:48:01, 1.103283, -101.430667, , , 274.0, 10.40, 275.6, 25.351, 1007.02, 10.9, 84.066, 275.1, , , , 34.4728, 26.2557, 1536.7993, 53.6511, 26.1176, 26.2557, 40.0, 3.3199, 1B
2009/03/14, 00:49:01, 1.103450, -101.433533, , , 271.0, 10.50, 276.2, 25.343, 1006.98, 10.2, 84.395, 274.8, , , , 34.4919, 26.2599, 1536.8278, 53.6811, 26.1508, 26.2599, 45.6, 3.4765, 1B
2009/03/14, 00:50:01, 1.103650, -101.436400, , , 276.0, 10.20, 275.2, 25.359, 1006.89, 9.1, 84.257, 275.7, , , , 34.4629, 26.2614, 1536.8027, 53.6625, 26.1297, 26.2614, 42.4, 3.2351, 1B
2009/03/14, 00:51:01, 1.103850, -101.439250, , , 276.0, 10.30, 275.6, 25.366, 1007.19, 8.3, 84.502, 275.7, , , , 34.4721, 26.2613, 1536.8132, 53.6567, 26.1370, 26.2613, 45.5, 3.3905, 1B
2009/03/14, 00:52:02, 1.104033, -101.442150, , , 278.0, 10.40, 276.5, 25.343, 1007.22, 7.6, 84.311, 276.0, , , , 34.4763, 26.2615, 1536.8179, 53.6626, 26.1390, 26.2615, 46.4, 3.1329, 1B
2009/03/14, 00:53:01, 1.104250, -101.445050, , , 273.0, 10.50, 276.4, 25.343, 1006.86, 6.8, 84.387, 275.7, , , , 34.4909, 26.2612, 1536.8333, 53.6825, 26.1559, 26.2612, 42.4, 3.4112, 1B
2009/03/14, 00:54:02, 1.104417, -101.447917, , , 275.0, 10.00, 274.8, 25.328, 1007.25, 6.1, 84.020, 275.3, , , , 34.4667, 26.2596, 1536.8033, 53.6473, 26.1241, 26.2596, 41.3, 3.1035, 1B
2009/03/14, 00:55:02, 1.104567, -101.450800, , , 273.0, 10.30, 275.6, 25.343, 1007.20, 5.5, 84.227, 275.8, , , , 34.4678, 26.2614, 1536.8086, 53.6507, 26.1298, 26.2614, 40.4, 3.3360, 1B
2009/03/14, 00:56:01, 1.104717, -101.453733, , , 274.0, 10.90, 275.6, 25.351, 1007.24, 5.1, 84.563, 275.1, , , , 34.4470, 26.2640, 1536.7925, 53.6246, 26.1070, 26.2640, 52.8, 3.4410, 1B
2009/03/14, 00:57:02, 1.104900, -101.456967, , , 271.0, 12.30, 276.3, 25.359, 1007.29, 4.8, 84.724, 274.8, , , , 34.4524, 26.2650, 1536.8006, 53.6331, 26.1060, 26.2650, 46.1, 3.9097, 1B
2009/03/14, 00:58:02, 1.105150, -101.460350, , , 271.0, 12.10, 277.2, 25.359, 1007.02, 4.2, 84.786, 275.3, , , , 34.5014, 26.2681, 1536.8601, 53.7041, 26.1687, 26.2681, 29.9, 4.0377, 1B
2009/03/14, 00:59:01, 1.105367, -101.463700, , , 275.0, 12.00, 275.2, 25.366, 1007.09, 3.9, 84.632, 275.4, , , , 34.4903, 26.2730, 1536.8596, 53.6938, 26.1670, 26.2730, 30.8, 3.9355, 1B
2009/03/14, 01:00:01, 1.105567, -101.467050, , , 277.0, 12.10, 275.3, 25.359, 1007.42, 3.4, 84.755, 274.8, , , , 34.4679, 26.2808, 1536.8539, 53.6709, 26.1440, 26.2808, 34.3, 3.3194, 1B
2009/03/14, 01:01:02, 1.105767, -101.470383, , , 274.0, 12.20, 276.3, 25.351, 1007.29, 2.8, 84.809, 275.8, , , , 34.4749, 26.2894, 1536.8813, 53.6896, 26.1561, 26.2894, 35.3, 3.4197, 1B
2009/03/14, 01:02:01, 1.105967, -101.473717, , , 269.0, 12.10, 277.5, 25.328, 1007.21, 2.5, 84.732, 276.4, , , , 34.4405, 26.2941, 1536.8555, 53.6468, 26.1174, 26.2941, 31.6, 3.9885, 1B
2009/03/14, 01:03:01, 1.106217, -101.477050, , , 272.0, 12.30, 275.6, 25.320, 1007.01, 2.1, 84.288, 275.3, , , , 34.4538, 26.2958, 1536.8723, 53.6663, 26.1410, 26.2958, 34.1, 3.5936, 1B
2009/03/14, 01:04:02, 1.106433, -101.480400, , , 274.0, 11.90, 276.2, 25.328, 1007.00, 1.8, 84.364, 275.6, , , , 34.4666, 26.2962, 1536.8883, 53.6851, 26.1503, 26.2962, 33.2, 3.7856, 1B
2009/03/14, 01:05:01, 1.106650, -101.483750, , , 271.0, 12.10, 275.7, 25.336, 1007.54, 1.6, 84.380, 275.3, , , , 34.4833, 26.3017, 1536.9184, 53.7239, 26.1914, 26.3017, 31.2, 4.1447, 1B
2009/03/14, 01:06:02, 1.106867, -101.487117, , , 273.0, 12.20, 276.1, 25.313, 1007.42, 1.3, 84.464, 275.2, , , , 34.4746, 26.3060, 1536.9196, 53.7064, 26.1702, 26.3060, 33.3, 3.5646, 1B
2009/03/14, 01:07:01, 1.107067, -101.490467, , , 274.0, 12.30, 275.3, 25.313, 1007.33, 1.3, 84.464, 275.4, , , , 34.4465, 26.3064, 1536.8901, 53.6676, 26.1413, 26.3064, 35.0, 3.2614, 1B
2009/03/14, 01:08:01, 1.107233, -101.493833, , , 272.0, 12.20, 276.8, 25.313, 1007.05, 1.3, 84.265, 275.9, , , , 34.4501, 26.3002, 1536.8837, 53.6681, 26.1396, 26.3002, 36.0, 3.8501, 1B
2009/03/14, 01:09:02, 1.107433, -101.497200, , , 276.0, 12.30, 276.3, 25.320, 1007.46, 1.0, 84.418, 275.8, , , , 34.4682, 26.2958, 1536.8891, 53.6869, 26.1583, 26.2958, 36.4, 3.6026, 1B
2009/03/14, 01:10:02, 1.107667, -101.500567, , , 274.0, 12.30, 275.8, 25.328, 1007.40, 0.8, 84.295, 274.9, , , , 34.4522, 26.2907, 1536.8601, 53.6595, 26.1368, 26.2907, 39.6, 3.5667, 1B
2009/03/14, 01:11:01, 1.107883, -101.503950, , , 270.0, 12.40, 276.0, 25.320, 1007.46, 0.8, 84.395, 275.1, , , , 34.4773, 26.2876, 1536.8810, 53.6910, 26.1644, 26.2876, 35.7, 3.6685, 1B
2009/03/14, 01:12:02, 1.108050, -101.507333, , , 273.0, 12.10, 276.2, 25.336, 1007.29, 0.8, 84.548, 276.0, , , , 34.4750, 26.2828, 1536.8661, 53.6829, 26.1586, 26.2828, 37.6, 3.5258, 1B
2009/03/14, 01:13:02, 1.108217, -101.510700, , , 275.0, 12.10, 276.2, 25.328, 1007.21, 0.5, 84.763, 275.8, , , , 34.4389, 26.2785, 1536.8176, 53.6284, 26.0966, 26.2785, 32.4, 3.3192, 1B
2009/03/14, 01:14:02, 1.108383, -101.514083, , , 275.0, 12.00, 275.1, 25.320, 1007.52, 0.5, 84.617, 274.9, , , , 34.4795, 26.2763, 1536.8558, 53.6823, 26.1476, 26.2763, 36.9, 2.8130, 1B
2009/03/14, 01:15:01, 1.108533, -101.517467, , , 272.0, 12.10, 276.5, 25.320, 1007.60, 0.4, 84.617, 276.0, , , , 34.5022, 26.2732, 1536.8744, 53.7112, 26.1763, 26.2732, 35.2, 3.1542, 1B
2009/03/14, 01:16:02, 1.108717, -101.520783, , , 273.0, 12.00, 276.1, 25.305, 1007.26, 0.3, 84.127, 275.3, , , , 34.4784, 26.2709, 1536.8420, 53.6752, 26.1400, 26.2709, 33.0, 3.3201, 1B
2009/03/14, 01:17:01, 1.108867, -101.524033, , , 270.0, 11.70, 276.1, 25.320, 1007.19, 0.1, 84.510, 275.3, , , , 34.4956, 26.2709, 1536.8606, 53.6991, 26.1656, 26.2709, 36.5, 3.7319, 1B
2009/03/14, 01:18:02, 1.108967, -101.527283, , , 266.0, 11.90, 276.4, 25.313, 1007.28, 0.1, 84.487, 275.8, , , , 34.4954, 26.2730, 1536.8651, 53.7009, 26.1717, 26.2730, 30.0, 3.6095, 1B
2009/03/14, 01:19:02, 1.109100, -101.530517, , , 270.0, 11.80, 275.6, 25.320, 1007.32, 0.1, 84.387, 276.3, , , , 34.4928, 26.2744, 1536.8656, 53.6988, 26.1672, 26.2744, 32.7, 3.3419, 1B
2009/03/14, 01:20:02, 1.109267, -101.533750, , , 273.0, 11.70, 276.6, 25.305, 1007.12, 0.1, 84.250, 275.2, , , , 34.5247, 26.2785, 1536.9091, 53.7471, 26.2044, 26.2785, 36.4, 3.2520, 1B
2009/03/14, 01:21:01, 1.109433, -101.536983, , , 271.0, 11.80, 275.9, 25.313, 1007.42, 0.1, 84.334, 275.4, , , , 34.5240, 26.2843, 1536.9207, 53.7517, 26.2147, 26.2843, 32.8, 3.1373, 1B
2009/03/14, 01:22:02, 1.109567, -101.540200, , , 273.0, 11.50, 275.8, 25.289, 1007.41, 0.1, 83.782, 275.1, , , , 34.5092, 26.2914, 1536.9226, 53.7391, 26.2012, 26.2914, 31.3, 3.1598, 1B
2009/03/14, 01:23:02, 1.109700, -101.543433, , , 273.0, 11.70, 276.0, 25.282, 1007.31, 0.1, 83.752, 276.7, , , , 34.5062, 26.2941, 1536.9257, 53.7377, 26.1911, 26.2941, 42.5, 3.2749, 1B
2009/03/14, 01:24:02, 1.109850, -101.546633, , , 275.0, 11.40, 276.6, 25.289, 1007.50, 0.1, 83.736, 275.1, , , , 34.4859, 26.2934, 1536.9024, 53.7089, 26.1766, 26.2934, 41.5, 3.2744, 1B
2009/03/14, 01:25:01, 1.110000, -101.549833, , , 267.0, 11.60, 275.8, 25.313, 1007.41, 0.1, 83.928, 275.3, , , , 34.5082, 26.2928, 1536.9248, 53.7392, 26.2196, 26.2928, 33.0, 3.8962, 1B
2009/03/14, 01:26:02, 1.110167, -101.553033, , , 272.0, 11.60, 275.9, 25.343, 1007.39, 0.0, 84.487, 275.8, , , , 34.5076, 26.2911, 1536.9202, 53.7366, 26.1940, 26.2911, 40.8, 3.5036, 1B
2009/03/14, 01:27:02, 1.110317, -101.556250, , , 269.0, 11.50, 275.2, 25.336, 1007.21, 0.1, 84.311, 275.7, , , , 34.5059, 26.2899, 1536.9156, 53.7330, 26.1994, 26.2899, 31.9, 3.7008, 1B
2009/03/14, 01:28:01, 1.110417, -101.559483, , , 272.0, 11.80, 276.1, 25.328, 1007.39, 0.1, 84.433, 275.4, , , , 34.4893, 26.2847, 1536.8909, 53.7069, 26.1674, 26.2847, 40.7, 3.5340, 1B
2009/03/14, 01:29:02, 1.110600, -101.562700, , , 276.0, 11.60, 276.4, 25.320, 1007.47, 0.1, 84.280, 275.7, , , , 34.5140, 26.2790, 1536.8989, 53.7329, 26.1645, 26.2790, 42.0, 3.1784, 1B
2009/03/14, 01:30:02, 1.110783, -101.565900, , , 275.0, 11.50, 276.0, 25.320, 1007.71, 0.1, 84.364, 276.7, , , , 34.5005, 26.2757, 1536.8768, 53.7108, 26.1765, 26.2757, 36.1, 3.2416, 1B
2009/03/14, 01:31:02, 1.110933, -101.569117, , , 274.0, 11.70, 275.4, 25.328, 1007.58, 0.1, 84.196, 275.8, , , , 34.5070, 26.2735, 1536.8786, 53.7175, 26.1711, 26.2735, 43.1, 3.1813, 1B
2009/03/14, 01:32:02, 1.111067, -101.572350, , , 272.0, 11.60, 276.0, 25.320, 1007.52, 0.1, 84.418, 276.0, , , , 34.4984, 26.2746, 1536.8720, 53.7067, 26.1616, 26.2746, 37.7, 3.2028, 1B
2009/03/14, 01:33:02, 1.111217, -101.575567, , , 269.0, 11.80, 276.1, 25.320, 1007.40, 0.3, 84.089, 275.9, , , , 34.4922, 26.2731, 1536.8619, 53.6966, 26.1532, 26.2731, 28.6, 3.9581, 1B
2009/03/14, 01:34:02, 1.111350, -101.578767, , , 268.0, 11.70, 276.1, 25.305, 1007.45, 0.5, 84.043, 275.3, , , , 34.4895, 26.2706, 1536.8532, 53.6902, 26.1404, 26.2706, 30.9, 4.0699, 1B
2009/03/14, 01:35:01, 1.111483, -101.581967, , , 271.0, 11.60, 275.6, 25.305, 1007.50, 0.5, 84.043, 275.4, , , , 34.4770, 26.2633, 1536.8243, 53.6660, 26.1290, 26.2633, 35.2, 3.6467, 1B
2009/03/14, 01:36:01, 1.111617, -101.585183, , , 271.0, 11.50, 275.6, 25.297, 1007.30, 0.3, 83.614, 275.4, , , , 34.4986, 26.2592, 1536.8373, 53.6915, 26.1456, 26.2592, 39.3, 3.5190, 1B
2009/03/14, 01:37:01, 1.111750, -101.588383, , , 274.0, 11.70, 275.6, 25.320, 1007.24, 0.2, 83.729, 275.5, , , , 34.5183, 26.2582, 1536.8532, 53.7164, 26.1767, 26.2582, 37.1, 3.7493, 1B
2009/03/14, 01:38:01, 1.111883, -101.591633, , , 272.0, 11.60, 276.3, 25.320, 1007.60, 0.1, 83.775, 275.5, , , , 34.5321, 26.2614, 1536.8740, 53.7382, 26.1840, 26.2614, 36.8, 3.7105, 1B
2009/03/14, 01:39:01, 1.112067, -101.594850, , , 277.0, 11.70, 275.7, 25.313, 1007.58, 0.1, 83.959, 275.7, , , , 34.5080, 26.2605, 1536.8506, 53.7059, 26.1639, 26.2605, 39.1, 3.1458, 1B
2009/03/14, 01:40:01, 1.112200, -101.598050, , , 273.0, 11.50, 276.2, 25.313, 1007.67, 0.1, 83.943, 275.5, , , , 34.4864, 26.2545, 1536.8124, 53.6692, 26.1178, 26.2545, 36.2, 3.5771, 1B
2009/03/14, 01:41:02, 1.112383, -101.601267, , , 275.0, 11.80, 276.6, 25.313, 1007.38, 0.1, 83.706, 275.9, , , , 34.4979, 26.2499, 1536.8140, 53.6804, 26.1296, 26.2499, 46.2, 3.1684, 1B
2009/03/14, 01:42:02, 1.112550, -101.604500, , , 269.0, 11.90, 275.3, 25.328, 1007.43, 0.1, 83.936, 274.8, , , , 34.5076, 26.2475, 1536.8188, 53.6913, 26.1483, 26.2475, 35.8, 3.5987, 1B
2009/03/14, 01:43:01, 1.112667, -101.607783, , , 269.0, 12.20, 276.6, 25.320, 1007.50, 0.1, 84.119, 276.3, , , , 34.5159, 26.2458, 1536.8237, 53.7011, 26.1465, 26.2458, 41.4, 3.3794, 1B
2009/03/14, 01:44:01, 1.112850, -101.611150, , , 271.0, 12.30, 276.3, 25.313, 1007.56, 0.1, 84.027, 275.6, , , , 34.5193, 26.2435, 1536.8220, 53.7034, 26.1520, 26.2435, 36.2, 3.7106, 1B
2009/03/14, 01:45:02, 1.113033, -101.614567, , , 272.0, 12.40, 274.9, 25.305, 1007.64, 0.1, 83.667, 274.2, , , , 34.5049, 26.2415, 1536.8019, 53.6814, 26.1280, 26.2415, 41.8, 3.5162, 1B
2009/03/14, 01:46:02, 1.113183, -101.617967, , , 270.0, 12.20, 274.9, 25.305, 1007.50, 0.1, 83.698, 275.6, , , , 34.4939, 26.2364, 1536.7783, 53.6608, 26.1125, 26.2364, 38.0, 3.6481, 1B
2009/03/14, 01:47:01, 1.113317, -101.621350, , , 271.0, 12.30, 276.3, 25.328, 1007.72, 0.1, 83.989, 275.4, , , , 34.4653, 26.2260, 1536.7291, 53.6130, 26.0754, 26.2260, 40.5, 3.4183, 1B
2009/03/14, 01:48:02, 1.113517, -101.624717, , , 271.0, 12.30, 276.3, 25.305, 1007.66, 0.0, 83.836, 276.2, , , , 34.4851, 26.2174, 1536.7247, 53.6290, 26.0828, 26.2174, 40.7, 3.8634, 1B
2009/03/14, 01:49:02, 1.113733, -101.628083, , , 271.0, 12.20, 275.6, 25.328, 1007.56, 0.1, 84.273, 275.6, , , , 34.4989, 26.2095, 1536.7210, 53.6398, 26.1076, 26.2095, 44.7, 3.7954, 1B
2009/03/14, 01:50:02, 1.113950, -101.631450, , , 272.0, 12.20, 275.8, 25.336, 1007.96, 0.1, 84.318, 275.9, , , , 34.4846, 26.2048, 1536.6948, 53.6152, 26.0731, 26.2048, 43.5, 3.5817, 1B
2009/03/14, 01:51:02, 1.114117, -101.634817, , , 275.0, 12.20, 276.3, 25.320, 1007.37, 0.1, 84.219, 276.3, , , , 34.5123, 26.2012, 1536.7160, 53.6498, 26.0977, 26.2012, 44.0, 3.3767, 1B
2009/03/14, 01:52:02, 1.114383, -101.638200, , , 275.0, 12.20, 277.0, 25.328, 1007.64, 0.1, 84.625, 275.6, , , , 34.5094, 26.2022, 1536.7152, 53.6468, 26.1003, 26.2022, 48.0, 3.5207, 1B
2009/03/14, 01:53:02, 1.114617, -101.641567, , , 273.0, 12.40, 275.8, 25.336, 1007.73, 0.2, 84.747, 275.2, , , , 34.5034, 26.2010, 1536.7060, 53.6373, 26.0824, 26.2010, 42.3, 3.4341, 1B
2009/03/14, 01:54:01, 1.114850, -101.644967, , , 270.0, 12.10, 275.9, 25.313, 1007.54, 0.5, 84.242, 275.4, , , , 34.5045, 26.1973, 1536.6988, 53.6350, 26.0813, 26.1973, 45.5, 3.1030, 1B
2009/03/14, 01:55:02, 1.115083, -101.648333, , , 269.0, 12.20, 275.2, 25.328, 1007.64, 0.5, 84.142, 274.6, , , , 34.4871, 26.1931, 1536.6702, 53.6065, 26.0598, 26.1931, 33.3, 3.6092, 1B
2009/03/14, 01:56:02, 1.115283, -101.651683, , , 273.0, 12.30, 277.5, 25.313, 1007.65, 0.5, 83.913, 276.5, , , , 34.4813, 26.1847, 1536.6444, 53.5898, 26.0409, 26.1847, 38.2, 3.5573, 1B
2009/03/14, 01:57:02, 1.115550, -101.655017, , , 274.0, 12.00, 275.7, 25.328, 1007.73, 0.5, 84.188, 275.7, , , , 34.4744, 26.1780, 1536.6214, 53.5733, 26.0270, 26.1780, 33.6, 3.4435, 1B
2009/03/14, 01:58:02, 1.115783, -101.658367, , , 279.0, 12.00, 276.7, 25.320, 1007.64, 0.5, 84.058, 275.1, , , , 34.4713, 26.1737, 1536.6080, 53.5646, 26.0287, 26.1737, 44.6, 3.0924, 1B
2009/03/14, 01:59:02, 1.116033, -101.661717, , , 280.0, 12.00, 276.1, 25.320, 1007.77, 0.5, 84.104, 275.5, , , , 34.4877, 26.1693, 1536.6153, 53.5827, 26.0358, 26.1693, 41.1, 2.5400, 1B
2009/03/14, 02:00:01, 1.116267, -101.665100, , , 277.0, 12.20, 275.5, 25.313, 1007.83, 0.5, 84.303, 275.8, , , , 34.4983, 26.1643, 1536.6150, 53.5921, 26.0492, 26.1643, 32.8, 3.0180, 1B
2009/03/14, 02:01:01, 1.116500, -101.668467, , , 276.0, 12.00, 275.6, 25.351, 1007.90, 0.5, 84.295, 275.8, , , , 34.5051, 26.1581, 1536.6098, 53.5960, 26.0491, 26.1581, 31.1, 3.3847, 1B
2009/03/14, 02:02:02, 1.116733, -101.671867, , , 277.0, 12.50, 276.5, 25.328, 1007.92, 0.5, 83.997, 276.4, , , , 34.5010, 26.1537, 1536.5931, 53.5849, 26.0358, 26.1537, 39.1, 2.9693, 1B
2009/03/14, 02:03:01, 1.116983, -101.675233, , , 272.0, 12.00, 276.3, 25.313, 1008.03, 0.5, 83.851, 275.5, , , , 34.5217, 26.1489, 1536.6063, 53.6095, 26.0211, 26.1489, 37.1, 2.9275, 1B
2009/03/14, 02:04:02, 1.117217, -101.678617, , , 274.0, 12.20, 275.4, 25.305, 1007.82, 0.4, 83.813, 275.6, , , , 34.4849, 26.1404, 1536.5448, 53.5488, 25.9976, 26.1404, 43.5, 3.1031, 1B
2009/03/14, 02:05:01, 1.117450, -101.682000, , , 278.0, 12.10, 275.6, 25.336, 1007.86, 0.5, 84.142, 276.1, , , , 34.4877, 26.1335, 1536.5317, 53.5455, 25.9996, 26.1335, 42.3, 2.6105, 1B